GW1618 Weather Reports


time (UTC)temp
C
wind
direction
speed
KPH
gust
KPH
rain 1hr
cm
rain 24hr
cm
rain mn
cm
humidity
%
barometer
mb
20260906002712 20 335 3.2 6.4 0.00 0.10 0.03 44 1015.3
20260906002212 20 46 4.8 8.0 0.00 0.10 0.03 48 1015.3
20260906001711 20 4 6.4 9.7 0.00 0.10 0.03 50 1015.3
20260906001205 20 4 6.4 9.7 0.00 0.10 0.03 50 1015.3
20260906000705 20 359 8.0 14.5 0.00 0.10 0.03 51 1015.2
20260906000204 20 9 8.0 14.5 0.00 0.10 0.03 52 1015.2
20260905235955 20 30 9.7 17.7 0.00 0.10 0.03 51 1015.2
20260905235204 20 344 11.3 20.9 0.00 0.10 0.03 55 1015.3
20260905234954 20 359 12.9 20.9 0.00 0.10 0.03 55 1015.3
20260905234209 20 4 12.9 17.7 0.00 0.10 0.03 57 1015.3
20260905233953 20 351 12.9 17.7 0.00 0.10 0.03 55 1015.3
20260905233202 20 9 9.7 16.1 0.00 0.10 0.03 53 1015.3
20260905232702 20 350 8.0 11.3 0.00 0.10 0.03 52 1015.3
20260905232200 20 21 8.0 11.3 0.00 0.10 0.03 50 1015.3
20260905231701 20 351 6.4 11.3 0.00 0.10 0.03 51 1015.3
20260905231203 20 30 6.4 9.7 0.00 0.10 0.03 51 1015.3
20260905230703 20 327 4.8 8.0 0.00 0.10 0.03 50 1015.4
20260905230503 20 334 3.2 6.4 0.00 0.10 0.03 52 1015.4
20260905225700 20 325 4.8 9.7 0.00 0.10 0.03 52 1015.4
20260905225457 20 332 6.4 11.3 0.00 0.10 0.03 54 1015.4
20260905224656 19 9 8.0 14.5 0.00 0.10 0.03 57 1015.4
20260905224147 19 30 9.7 16.1 0.00 0.10 0.03 56 1015.4
20260905223637 19 347 9.7 16.1 0.00 0.10 0.03 57 1015.5
20260905223139 19 333 6.4 14.5 0.00 0.10 0.03 59 1015.5
20260905222638 19 337 4.8 8.0 0.00 0.10 0.03 56 1015.7
20260905222140 19 9 4.8 8.0 0.00 0.10 0.03 56 1015.7
20260905221640 19 328 4.8 6.4 0.00 0.10 0.03 55 1015.7
20260905221446 19 319 4.8 8.0 0.00 0.10 0.03 56 1016.0
20260905220634 19 328 6.4 8.0 0.00 0.10 0.03 55 1016.0
20260905220134 19 341 6.4 8.0 0.00 0.10 0.03 55 1016.0
20260905215635 19 15 6.4 9.7 0.00 0.10 0.03 56 1016.0
20260905215132 19 35 6.4 9.7 0.00 0.10 0.03 60 1016.0
20260905214634 19 13 8.0 9.7 0.00 0.10 0.03 58 1016.0
20260905214120 19 15 8.0 9.7 0.00 0.10 0.03 56 1016.0
20260905213614 19 29 6.4 9.7 0.00 0.10 0.03 55 1016.0
20260905213112 19 9 6.4 8.0 0.00 0.10 0.03 55 1016.0
20260905212613 18 37 6.4 8.0 0.00 0.10 0.03 57 1016.1
20260905212114 18 18 6.4 8.0 0.00 0.10 0.03 57 1016.1
20260905211614 18 355 4.8 8.0 0.00 0.10 0.03 60 1016.1
20260905211423 18 348 4.8 9.7 0.00 0.10 0.03 60 1016.3
20260905210610 18 359 6.4 9.7 0.00 0.10 0.03 62 1016.3
20260905210420 18 9 3.2 9.7 0.00 0.10 0.03 61 1016.3
20260905205610 19 311 3.2 6.4 0.00 0.10 0.03 57 1016.4
20260905205105 18 250 4.8 8.0 0.00 0.10 0.03 56 1016.4
20260905204553 18 177 4.8 8.0 0.00 0.10 0.03 58 1016.4
20260905204041 18 232 3.2 6.4 0.00 0.10 0.03 57 1016.5
20260905203531 18 215 4.8 9.7 0.00 0.10 0.03 57 1016.5
20260905203030 18 213 4.8 9.7 0.00 0.10 0.03 59 1016.5
20260905202532 18 205 6.4 8.0 0.00 0.10 0.03 59 1016.6
20260905202031 18 215 6.4 11.3 0.00 0.10 0.03 59 1016.6
20260905201830 18 216 6.4 11.3 0.00 0.10 0.03 59 1016.6
20260905201031 18 249 6.4 9.7 0.00 0.10 0.03 59 1016.7
20260905200819 18 233 6.4 9.7 0.00 0.10 0.03 59 1016.7
20260905200331 18 237 6.4 9.7 0.00 0.10 0.03 59 1016.7
20260905195534 18 273 6.4 9.7 0.00 0.10 0.03 59 1016.9
20260905195026 18 273 6.4 9.7 0.00 0.10 0.03 60 1016.9
20260905194510 17 204 4.8 9.7 0.00 0.10 0.03 60 1016.9
20260905194012 17 250 4.8 8.0 0.00 0.10 0.03 60 1017.0
20260905193513 17 261 4.8 8.0 0.00 0.10 0.03 59 1017.0
20260905193008 17 254 4.8 8.0 0.00 0.10 0.03 62 1017.0
20260905192805 17 237 3.2 8.0 0.00 0.10 0.03 62 1017.1
20260905192008 17 219 3.2 6.4 0.00 0.10 0.03 62 1017.1
20260905191508 17 213 3.2 6.4 0.00 0.10 0.03 63 1017.1
20260905191009 17 242 1.6 6.4 0.00 0.10 0.03 66 1017.3
20260905190514 16 219 3.2 6.4 0.00 0.10 0.03 65 1017.3
20260905190010 16 176 3.2 6.4 0.00 0.10 0.03 67 1017.3
20260905185453 16 186 1.6 4.8 0.00 0.10 0.03 68 1017.4
20260905184938 16 139 1.6 4.8 0.00 0.10 0.03 71 1017.4
20260905184434 16 209 1.6 6.4 0.00 0.10 0.03 72 1017.4
20260905183936 15 283 3.2 8.0 0.00 0.10 0.03 73 1017.5
20260905183429 15 273 3.2 8.0 0.00 0.10 0.03 74 1017.5
20260905182930 15 214 3.2 6.4 0.00 0.10 0.03 77 1017.5
20260905182430 15 223 3.2 4.8 0.00 0.10 0.03 79 1017.6
20260905181934 14 261 3.2 6.4 0.00 0.10 0.03 80 1017.6
20260905181430 14 232 3.2 6.4 0.00 0.10 0.03 80 1017.6
20260905180933 14 269 3.2 6.4 0.00 0.10 0.03 81 1017.6
20260905180430 13 222 3.2 6.4 0.00 0.10 0.03 83 1017.6
20260905175920 13 211 3.2 6.4 0.00 0.10 0.03 84 1017.6
20260905175420 13 202 3.2 6.4 0.00 0.10 0.03 84 1017.6
20260905174928 13 194 3.2 6.4 0.00 0.10 0.03 84 1017.6
20260905174711 13 158 1.6 4.8 0.00 0.10 0.03 85 1017.6
20260905173919 13 205 3.2 4.8 0.00 0.10 0.03 85 1017.5
20260905173418 13 166 3.2 6.4 0.00 0.10 0.03 85 1017.5
20260905172916 13 225 3.2 6.4 0.00 0.10 0.03 85 1017.5
20260905172719 13 215 3.2 8.0 0.00 0.10 0.03 85 1017.5
20260905171914 13 240 4.8 8.0 0.00 0.10 0.03 86 1017.5
20260905171412 13 218 3.2 6.4 0.00 0.10 0.03 87 1017.5
20260905170913 13 205 3.2 6.4 0.00 0.10 0.03 87 1017.6
20260905170718 13 226 1.6 4.8 0.00 0.10 0.03 88 1017.6
20260905165900 12 223 1.6 3.2 0.00 0.10 0.03 88 1017.6
20260905165355 12 316 1.6 3.2 0.00 0.10 0.03 88 1017.5
20260905164850 12 323 0.0 1.6 0.00 0.10 0.03 89 1017.5
20260905164342 12 335 1.6 4.8 0.00 0.10 0.03 89 1017.5
20260905163835 12 335 1.6 4.8 0.00 0.10 0.03 89 1017.2
20260905163402 12 9 1.6 4.8 0.00 0.10 0.03 89 1017.2
20260905162331 12 343 4.8 8.0 0.00 0.10 0.03 89 1017.1
20260905161834 12 342 4.8 8.0 0.00 0.10 0.03 89 1017.1
20260905161631 12 344 3.2 6.4 0.00 0.10 0.03 89 1017.1
20260905160838 11 359 3.2 4.8 0.00 0.10 0.03 89 1017.1
20260905160329 11 28 3.2 4.8 0.00 0.10 0.03 89 1017.1
20260905155833 11 18 3.2 6.4 0.00 0.10 0.03 89 1017.1
20260905155330 11 342 1.6 6.4 0.00 0.10 0.03 89 1017.1
20260905154822 12 344 1.6 3.2 0.00 0.10 0.03 90 1017.1
20260905154616 12 13 1.6 3.2 0.00 0.10 0.03 90 1017.1
20260905153807 12 67 0.0 1.6 0.00 0.10 0.03 91 1017.1
20260905153601 11 92 0.0 1.6 0.00 0.10 0.03 91 1017.1
20260905152752 11 92 0.0 3.2 0.00 0.10 0.03 91 1017.1
20260905152250 11 92 0.0 3.2 0.00 0.10 0.03 92 1017.0
20260905151741 11 132 0.0 3.2 0.00 0.10 0.03 92 1017.0
20260905151305 11 209 1.6 4.8 0.00 0.10 0.03 92 1017.0
20260905150232 10 240 1.6 4.8 0.00 0.10 0.03 92 1017.0
20260905145729 10 221 1.6 4.8 0.00 0.10 0.03 92 1017.0
20260905145229 10 215 1.6 4.8 0.00 0.10 0.03 92 1017.0
20260905144730 10 215 1.6 4.8 0.00 0.10 0.03 92 1017.0
20260905144208 10 184 1.6 4.8 0.00 0.10 0.03 92 1017.0
20260905143709 10 217 3.2 6.4 0.00 0.10 0.03 92 1017.0
20260905143205 10 220 3.2 6.4 0.00 0.10 0.03 92 1017.0
20260905142701 10 174 3.2 8.0 0.00 0.10 0.03 92 1017.0
20260905142201 10 227 3.2 8.0 0.00 0.10 0.03 92 1017.0
20260905141702 10 205 3.2 6.4 0.00 0.10 0.03 92 1017.0
20260905141201 10 208 3.2 6.4 0.00 0.10 0.03 92 1017.0
20260905141003 10 221 1.6 4.8 0.00 0.10 0.03 92 1016.8
20260905140205 10 194 1.6 3.2 0.00 0.10 0.03 92 1016.8
20260905135708 10 207 1.6 4.8 0.00 0.10 0.03 92 1016.8
20260905135208 10 208 1.6 6.4 0.00 0.10 0.03 92 1016.6
20260905134941 10 226 1.6 6.4 0.00 0.10 0.03 92 1016.6
20260905134203 10 217 1.6 4.8 0.00 0.10 0.03 92 1016.6
20260905133705 10 210 1.6 3.2 0.00 0.10 0.03 92 1016.5
20260905133200 10 209 1.6 4.8 0.00 0.10 0.03 92 1016.5
20260905132701 10 221 1.6 4.8 0.00 0.10 0.03 92 1016.5
20260905132201 10 179 3.2 6.4 0.00 0.10 0.03 92 1016.5
20260905131704 10 169 3.2 6.4 0.00 0.10 0.03 92 1016.5
20260905131202 10 177 1.6 4.8 0.00 0.10 0.03 92 1016.5
20260905130702 10 198 1.6 4.8 0.00 0.10 0.03 92 1016.4
20260905130203 10 204 1.6 4.8 0.00 0.10 0.03 92 1016.4
20260905125700 10 196 0.0 3.2 0.00 0.10 0.03 92 1016.4
20260905125158 10 196 1.6 6.4 0.00 0.10 0.03 92 1016.5
20260905124656 10 196 3.2 6.4 0.00 0.10 0.03 92 1016.5
20260905124440 10 209 3.2 4.8 0.00 0.10 0.03 92 1016.5
20260905123646 10 157 1.6 4.8 0.00 0.10 0.03 92 1016.5
20260905123418 10 174 1.6 4.8 0.00 0.10 0.03 92 1016.5
20260905122642 10 175 1.6 4.8 0.00 0.10 0.03 92 1016.4
20260905122143 10 166 1.6 4.8 0.00 0.10 0.03 92 1016.4
20260905121636 10 155 3.2 4.8 0.00 0.10 0.03 92 1016.4
20260905121136 10 155 3.2 4.8 0.00 0.10 0.03 92 1016.3
20260905120636 10 165 1.6 4.8 0.00 0.10 0.03 92 1016.3
20260905120137 10 133 1.6 3.2 0.00 0.10 0.03 92 1016.3
20260905115632 10 89 0.0 3.2 0.00 0.10 0.03 92 1016.3
20260905115130 11 178 1.6 3.2 0.00 0.10 0.03 92 1016.3
20260905114629 11 178 1.6 4.8 0.00 0.10 0.03 92 1016.3
20260905114131 11 226 1.6 4.8 0.00 0.10 0.03 92 1016.3
20260905113632 11 204 1.6 4.8 0.00 0.10 0.03 92 1016.3
20260905113130 11 184 1.6 4.8 0.00 0.10 0.03 92 1016.3
20260905112632 11 156 1.6 4.8 0.00 0.10 0.03 92 1016.2
20260905112132 11 157 3.2 6.4 0.00 0.10 0.03 92 1016.2
20260905111623 11 178 3.2 4.8 0.03 0.10 0.03 92 1016.2
20260905111117 11 198 3.2 4.8 0.03 0.10 0.03 93 1016.2
20260905110605 11 169 3.2 4.8 0.03 0.10 0.03 92 1016.2
20260905110104 11 167 3.2 4.8 0.03 0.10 0.03 92 1016.2
20260905105602 11 154 1.6 3.2 0.03 0.10 0.03 92 1016.0
20260905105105 11 157 1.6 3.2 0.03 0.10 0.03 93 1016.0
20260905104604 11 170 1.6 3.2 0.03 0.10 0.03 93 1016.0
20260905104103 11 242 1.6 3.2 0.03 0.10 0.03 93 1016.0
20260905103553 11 242 1.6 3.2 0.03 0.10 0.03 93 1016.0
20260905103040 11 256 1.6 1.6 0.03 0.10 0.03 93 1016.0
20260905102539 11 256 1.6 4.8 0.03 0.10 0.03 93 1016.0
20260905102315 11 256 3.2 4.8 0.03 0.10 0.00 93 1016.0
20260905101535 11 246 3.2 4.8 0.00 0.08 0.00 93 1016.0
20260905101031 11 184 3.2 6.4 0.00 0.08 0.00 93 1015.9
20260905100531 11 210 4.8 6.4 0.00 0.08 0.00 93 1015.9
20260905100027 11 223 3.2 6.4 0.00 0.08 0.00 93 1015.9
20260905095824 11 219 1.6 4.8 0.00 0.08 0.00 93 1016.0
20260905095022 11 250 1.6 4.8 0.00 0.08 0.00 93 1016.0
20260905094521 11 238 1.6 6.4 0.00 0.08 0.00 93 1016.0
20260905094024 11 231 1.6 6.4 0.00 0.08 0.00 93 1016.0
20260905093520 11 241 1.6 4.8 0.00 0.08 0.00 93 1016.0
20260905093024 11 217 3.2 8.0 0.00 0.08 0.00 93 1016.0
20260905092514 11 224 4.8 8.0 0.00 0.08 0.00 93 1016.0
20260905092319 11 199 3.2 8.0 0.00 0.08 0.00 93 1016.0
20260905091503 11 232 3.2 4.8 0.00 0.08 0.00 93 1016.0
20260905091002 11 226 1.6 6.4 0.00 0.08 0.00 93 1015.9
20260905090501 11 224 1.6 6.4 0.00 0.08 0.00 93 1015.9
20260905090001 11 250 1.6 3.2 0.00 0.08 0.00 92 1015.9
20260905085501 11 250 1.6 3.2 0.00 0.08 0.00 92 1015.7
20260905085002 11 213 1.6 3.2 0.00 0.08 0.00 92 1015.7
20260905084804 11 257 0.0 3.2 0.00 0.08 0.00 92 1015.7
20260905084249 11 257 1.6 3.2 0.00 0.08 0.00 92 1015.7
20260905083756 11 257 1.6 3.2 0.00 0.08 0.00 92 1015.7
20260905083030 11 257 1.6 4.8 0.00 0.08 0.00 92 1015.7
20260905082003 12 228 3.2 4.8 0.00 0.08 0.00 92 1015.6
20260905081455 12 239 3.2 4.8 0.00 0.08 0.00 92 1015.6
20260905080949 12 223 3.2 4.8 0.00 0.08 0.00 92 1015.5
20260905080453 12 207 3.2 4.8 0.00 0.08 0.00 92 1015.5
20260905075949 12 253 3.2 4.8 0.00 0.08 0.00 92 1015.5
20260905075451 12 269 3.2 4.8 0.00 0.08 0.00 92 1015.5
20260905074942 12 255 1.6 3.2 0.00 0.08 0.00 92 1015.5
20260905074745 12 252 1.6 3.2 0.00 0.08 0.00 92 1015.5
20260905073943 12 259 1.6 4.8 0.00 0.08 0.00 92 1015.5
20260905073440 12 259 1.6 4.8 0.00 0.08 0.00 92 1015.5
20260905073010 12 254 0.0 3.2 0.00 0.08 0.00 92 1015.5
20260905071938 12 252 1.6 3.2 0.00 0.08 0.00 92 1015.5
20260905071437 12 264 0.0 3.2 0.00 0.08 0.00 91 1015.5
20260905070929 12 231 1.6 4.8 0.00 0.08 0.00 91 1015.5
20260905070430 12 231 3.2 4.8 0.00 0.08 0.00 92 1015.5
20260905065929 12 194 3.2 6.4 0.00 0.08 0.08 92 1015.5
20260905065436 12 204 3.2 6.4 0.00 0.08 0.08 91 1015.2
20260905064932 12 233 1.6 6.4 0.00 0.08 0.08 92 1015.2
20260905064714 12 197 1.6 4.8 0.00 0.08 0.08 92 1015.2
20260905063915 12 209 1.6 4.8 0.00 0.08 0.08 92 1015.0
20260905063413 12 236 0.0 3.2 0.00 0.08 0.08 92 1015.0
20260905063203 12 256 0.0 3.2 0.00 0.08 0.08 91 1015.0
20260905062412 13 258 1.6 4.8 0.00 0.08 0.08 91 1014.9
20260905061909 13 256 3.2 6.4 0.00 0.08 0.08 91 1014.9
20260905061407 13 227 4.8 9.7 0.00 0.08 0.08 91 1014.9
20260905061159 13 217 4.8 9.7 0.00 0.08 0.08 91 1014.9
20260905060405 13 229 4.8 8.0 0.00 0.08 0.08 91 1014.9
20260905055903 13 224 4.8 8.0 0.00 0.08 0.08 91 1014.9
20260905055403 13 224 3.2 6.4 0.00 0.08 0.08 91 1014.8
20260905054904 13 215 3.2 6.4 0.00 0.08 0.08 91 1014.8
20260905054404 13 211 4.8 8.0 0.00 0.08 0.08 91 1014.8
20260905053904 13 202 4.8 8.0 0.00 0.08 0.08 91 1014.8
20260905053401 13 223 4.8 8.0 0.00 0.08 0.08 90 1014.8
20260905052906 13 208 4.8 8.0 0.00 0.08 0.08 90 1014.8
20260905052404 13 217 4.8 8.0 0.00 0.08 0.08 90 1014.8
20260905051904 13 204 4.8 8.0 0.00 0.08 0.08 90 1014.8
20260905051401 13 229 3.2 6.4 0.00 0.08 0.08 90 1014.8
20260905051149 13 248 3.2 4.8 0.00 0.08 0.08 89 1014.8
20260905050357 13 235 1.6 4.8 0.00 0.08 0.08 89 1014.8
20260905045857 13 218 3.2 6.4 0.00 0.08 0.08 89 1014.8
20260905045355 13 224 3.2 6.4 0.00 0.08 0.08 88 1014.8
20260905044858 13 217 3.2 4.8 0.00 0.08 0.08 88 1014.8
20260905044339 13 229 4.8 6.4 0.00 0.08 0.08 87 1014.8
20260905043831 14 230 3.2 6.4 0.00 0.08 0.08 87 1014.8
20260905043330 14 208 1.6 4.8 0.00 0.08 0.08 86 1014.8
20260905042831 14 236 0.0 3.2 0.00 0.08 0.08 85 1014.8
20260905042331 14 344 1.6 3.2 0.00 0.08 0.08 84 1014.8
20260905041835 14 346 3.2 4.8 0.00 0.08 0.08 84 1014.8
20260905041329 14 343 4.8 8.0 0.00 0.08 0.08 84 1014.8
20260905040826 14 359 6.4 11.3 0.00 0.08 0.08 84 1014.8
20260905040316 14 14 8.0 12.9 0.00 0.08 0.08 84 1014.8
20260905035852 14 344 4.8 12.9 0.00 0.08 0.08 84 1014.8
20260905034816 14 186 3.2 6.4 0.03 0.08 0.08 84 1014.5
20260905034606 14 207 4.8 9.7 0.05 0.08 0.08 84 1014.5
20260905033807 14 192 4.8 9.7 0.05 0.08 0.08 84 1014.4
20260905033304 14 177 6.4 9.7 0.05 0.08 0.08 84 1014.4
20260905032803 15 241 4.8 9.7 0.08 0.08 0.08 84 1014.4
20260905032306 15 219 4.8 9.7 0.08 0.08 0.08 84 1014.4
20260905031841 15 219 4.8 9.7 0.08 0.08 0.08 83 1014.4
20260905030802 15 207 4.8 9.7 0.08 0.08 0.08 84 1014.4
20260905030302 15 204 4.8 8.0 0.08 0.08 0.08 83 1014.4
20260905025805 15 227 6.4 14.5 0.08 0.08 0.08 83 1014.4
20260905025308 15 230 8.0 16.1 0.05 0.05 0.05 82 1014.3
20260905024801 15 242 8.0 16.1 0.05 0.05 0.05 81 1014.3
20260905024246 15 211 6.4 9.7 0.03 0.03 0.03 81 1014.3
20260905023743 16 250 6.4 11.3 0.03 0.03 0.03 80 1014.3
20260905023235 16 216 6.4 12.9 0.03 0.03 0.03 76 1014.3
20260905022732 16 171 6.4 12.9 0.00 0.00 0.00 75 1014.3
20260905022310 16 164 9.7 17.7 0.00 0.00 0.00 74 1014.1
20260905021232 17 146 12.9 27.4 0.00 0.00 0.00 69 1014.1
20260905020737 18 141 12.9 27.4 0.00 0.00 0.00 62 1013.9
20260905020233 18 141 9.7 24.1 0.00 0.00 0.00 55 1013.9
20260905015727 19 94 9.7 17.7 0.00 0.00 0.00 49 1013.9
20260905015227 19 110 12.9 22.5 0.00 0.00 0.00 50 1013.6
20260905014728 20 53 11.3 22.5 0.00 0.00 0.00 49 1013.6
20260905014226 20 96 12.9 25.7 0.00 0.00 0.00 49 1013.6
20260905013727 20 84 12.9 25.7 0.00 0.00 0.00 48 1013.2
20260905013526 20 44 9.7 22.5 0.00 0.00 0.00 46 1013.2
20260905013024 20 58 8.0 12.9 0.00 0.00 0.00 45 1013.2
20260905012223 20 73 11.3 17.7 0.00 0.00 0.00 46 1012.9
20260905011727 20 97 11.3 17.7 0.00 0.00 0.00 46 1012.9
20260905011225 20 48 9.7 17.7 0.00 0.00 0.00 47 1012.9
20260905010716 20 73 12.9 19.3 0.00 0.00 0.00 47 1012.9
20260905010516 20 53 9.7 19.3 0.00 0.00 0.00 47 1012.9
20260905005711 20 92 9.7 19.3 0.00 0.00 0.00 47 1012.9
20260905005210 20 69 9.7 19.3 0.00 0.00 0.00 48 1012.8
20260905004710 20 348 6.4 14.5 0.00 0.00 0.00 53 1012.8
20260905004208 20 340 4.8 11.3 0.00 0.00 0.00 53 1012.8
20260905003706 20 55 4.8 8.0 0.00 0.00 0.00 47 1012.8
20260905003207 20 301 4.8 8.0 0.00 0.00 0.00 49 1012.8
20260905003014 20 325 3.2 6.4 0.00 0.00 0.00 50 1012.8